sat.trackr.live / text

‹ back to catalog

STARLINK-31716

NORAD 59377 · 2024-062D

PAYLOAD ACTIVE UNKNOWN

§ Identity

Operator
Country
US
Launch date
2024-04-02
Launch site
AFWTR
Launch vehicle
Mass (kg)
RCS (m²)

Purposes: comms

External: N2YO · Heavens-Above · Gunter

§ Orbital elements

Epoch: 2026-09-20T20:07:06.996288Z

Period
93.85 min
Inclination
53.1583°
Eccentricity
0.0002322
Mean motion
15.34399171 rev/d
Perigee alt
461.1 km
Apogee alt
464.3 km
Semi-major
6,840.8 km
B*
-6.4694e-5
RAAN
19.9255°
Arg perigee
95.6158°
Mean anomaly
264.5109°
Rev number
14,019

§ Raw data

STARLINK-317161 59377U 24062D   26263.83827542 -.00002562  00000+0 -64694-4 0  99922 59377  53.1583  19.9255 0002322  95.6158 264.5109 15.34399171140197

JSON: /api/v1/satellites/59377 · /tle

For live sub-satellite position, see the globe view (requires WebGL).

§ Visibility from observer

Set your observer location to see the next 7 days of passes ≥ 10°. The values pass through the URL so the page stays shareable.

No JS? Fill the form by hand. The geolocation button needs JavaScript.